Location: Ammerl�gen
(47.2167°N, 9.6000°E)
Time: 09:42:05
(UTC+00:00)

ISS - Pass Details

Date: 29 September 2021
Orbit: 418 x 423 km, 51.6° (Epoch: 19 October)

Event Time Altitude Azimuth Distance (km) Brightness Sun altitude
Rises 18:12:37 0° 292° (WNW) 2,366 1.9 -12.3°
Reaches altitude 10° 18:14:46 10° 298° (WNW) 1,502 0.3 -12.6°
Maximum altitude 18:18:02 47° 14° (NNE) 563 -3.2 -13.2°
Enters shadow 18:19:45 24° 78° (ENE) 924 -2.6 -13.5°
